EJU926B LFQQ-LFBD

Flight info

Callsign EJU926B
Flight time 1h 15m
Altitude 25000
Route VERMA T372 LESDO DCT KOVIN DCT DUCRA/N0410F290 UM728 RESMI UN857 DISAK DCT DIRMO DCT ARTAX DCT BEBIX/N0367F230 DCT LMG
Aircraft A320/M-SDE2E3FGHIJ1RWXYZ/LB1

Departure

Time 2026-04-27 13:35
Airport Lille Airport (LFQQ)

Arrival

Time 2026-04-27 14:50
Airport Bordeaux–Mérignac Airport (LFBD)
Time Latitude Longitude Altitude Speed Heading
2026-04-27 13:29 50.56995 3.10412 151 ft 13 kts 257°
2026-04-27 13:30 50.56953 3.10304 151 ft 11 kts 197°
2026-04-27 13:30 50.56881 3.10317 151 ft 12 kts 167°
2026-04-27 13:30 50.56772 3.10295 151 ft 16 kts 239°
2026-04-27 13:30 50.56747 3.10134 151 ft 14 kts 257°
2026-04-27 13:31 50.56725 3.09988 151 ft 15 kts 257°
2026-04-27 13:31 50.56694 3.09761 151 ft 28 kts 258°
2026-04-27 13:31 50.56652 3.09449 151 ft 30 kts 258°
2026-04-27 13:31 50.56609 3.09134 151 ft 29 kts 258°
2026-04-27 13:32 50.56560 3.08824 151 ft 28 kts 253°
2026-04-27 13:32 50.56452 3.08741 151 ft 15 kts 194°
2026-04-27 13:32 50.56360 3.08697 153 ft 11 kts 220°
2026-04-27 13:32 50.56325 3.08582 152 ft 14 kts 260°
2026-04-27 13:33 50.56350 3.08407 151 ft 18 kts 290°
2026-04-27 13:33 50.56321 3.08362 151 ft 7 kts 159°
2026-04-27 13:33 50.56314 3.08478 152 ft 13 kts 76°
2026-04-27 13:33 50.56318 3.08511 152 ft 0 kts 79°
2026-04-27 13:34 50.56357 3.08766 143 ft 61 kts 77°
2026-04-27 13:34 50.56494 3.09749 152 ft 122 kts 77°
2026-04-27 13:34 50.56721 3.11312 181 ft 167 kts 77°
2026-04-27 13:34 50.56936 3.13177 664 ft 178 kts 81°
2026-04-27 13:35 50.56638 3.15032 1465 ft 181 kts 126°
2026-04-27 13:35 50.55542 3.16064 2120 ft 198 kts 164°
2026-04-27 13:35 50.54144 3.16670 2472 ft 221 kts 149°
2026-04-27 13:35 50.52806 3.18080 2948 ft 244 kts 140°
2026-04-27 13:36 50.51439 3.19848 3551 ft 262 kts 137°
2026-04-27 13:36 50.50012 3.21677 4537 ft 268 kts 147°
2026-04-27 13:36 50.48242 3.22585 5508 ft 273 kts 175°
2026-04-27 13:36 50.46339 3.22677 6451 ft 275 kts 179°
2026-04-27 13:37 50.44417 3.22743 7325 ft 278 kts 179°
2026-04-27 13:37 50.42468 3.22811 8180 ft 282 kts 180°
2026-04-27 13:37 50.40497 3.22880 9027 ft 285 kts 180°
2026-04-27 13:37 50.38498 3.22952 9889 ft 289 kts 180°
2026-04-27 13:38 50.36465 3.23024 10581 ft 298 kts 181°
2026-04-27 13:38 50.34305 3.23099 10866 ft 322 kts 181°
2026-04-27 13:38 50.32024 3.23178 11385 ft 333 kts 181°
2026-04-27 13:38 50.29690 3.23262 12125 ft 337 kts 180°
2026-04-27 13:39 50.27335 3.23347 12889 ft 341 kts 181°
2026-04-27 13:39 50.24951 3.23429 13671 ft 344 kts 181°
2026-04-27 13:39 50.22547 3.23517 14383 ft 347 kts 181°
2026-04-27 13:39 50.20116 3.23611 15015 ft 351 kts 181°
2026-04-27 13:40 50.17692 3.23700 15632 ft 355 kts 181°
2026-04-27 13:40 50.15210 3.23787 16244 ft 359 kts 181°
2026-04-27 13:40 50.12702 3.23876 16857 ft 363 kts 181°
2026-04-27 13:40 50.10157 3.23968 17482 ft 367 kts 181°
2026-04-27 13:41 50.07593 3.24062 18100 ft 371 kts 181°
2026-04-27 13:41 50.05007 3.24155 18685 ft 375 kts 181°
2026-04-27 13:41 50.02386 3.24251 19215 ft 378 kts 181°
2026-04-27 13:41 49.99746 3.24530 19765 ft 383 kts 174°
2026-04-27 13:42 49.97130 3.25433 20303 ft 388 kts 169°
2026-04-27 13:42 49.94504 3.26465 20835 ft 390 kts 169°
2026-04-27 13:42 49.91862 3.27503 21364 ft 393 kts 169°
2026-04-27 13:42 49.89203 3.28544 21878 ft 395 kts 169°
2026-04-27 13:43 49.86526 3.29590 22391 ft 398 kts 169°
2026-04-27 13:43 49.83812 3.30454 22894 ft 398 kts 177°
2026-04-27 13:43 49.81061 3.30568 23386 ft 396 kts 188°
2026-04-27 13:43 49.78355 3.29887 23860 ft 394 kts 198°
2026-04-27 13:44 49.75780 3.28474 24282 ft 392 kts 207°
2026-04-27 13:44 49.73273 3.26806 24712 ft 394 kts 206°
2026-04-27 13:44 49.70746 3.25138 25081 ft 395 kts 206°
2026-04-27 13:44 49.68219 3.23473 25180 ft 393 kts 206°
2026-04-27 13:45 49.65754 3.21857 25199 ft 378 kts 206°
2026-04-27 13:45 49.63345 3.20286 25200 ft 374 kts 206°
2026-04-27 13:45 49.60955 3.18729 25197 ft 373 kts 206°
2026-04-27 13:45 49.58569 3.17173 25196 ft 372 kts 206°
2026-04-27 13:46 49.56217 3.15635 25198 ft 372 kts 206°
2026-04-27 13:46 49.53798 3.14054 25194 ft 372 kts 206°
2026-04-27 13:46 49.51451 3.12520 25198 ft 372 kts 206°
2026-04-27 13:46 49.49079 3.10937 25198 ft 371 kts 210°
2026-04-27 13:47 49.46871 3.08910 25201 ft 369 kts 217°
2026-04-27 13:47 49.44738 3.06721 25197 ft 369 kts 217°
2026-04-27 13:47 49.42599 3.04537 25197 ft 369 kts 216°
2026-04-27 13:47 49.40453 3.02361 25191 ft 369 kts 216°
2026-04-27 13:48 49.38308 3.00193 25192 ft 369 kts 216°
2026-04-27 13:48 49.36165 2.98024 25189 ft 369 kts 216°
2026-04-27 13:48 49.34023 2.95854 25188 ft 369 kts 216°
2026-04-27 13:48 49.31876 2.93679 25184 ft 369 kts 216°
2026-04-27 13:49 49.29731 2.91508 25182 ft 370 kts 216°
2026-04-27 13:49 49.27585 2.89341 25185 ft 370 kts 216°
2026-04-27 13:49 49.25435 2.87173 25182 ft 370 kts 216°
2026-04-27 13:49 49.23285 2.85009 25186 ft 370 kts 216°
2026-04-27 13:50 49.21429 2.83141 25183 ft 370 kts 216°
2026-04-27 13:50 49.19276 2.80973 25184 ft 370 kts 216°
2026-04-27 13:50 49.17122 2.78807 25182 ft 370 kts 216°
2026-04-27 13:50 49.14968 2.76646 25183 ft 370 kts 216°
2026-04-27 13:51 49.12819 2.74491 25182 ft 370 kts 216°
2026-04-27 13:51 49.10830 2.72499 25181 ft 370 kts 216°
2026-04-27 13:51 49.08693 2.70365 25178 ft 370 kts 216°
2026-04-27 13:51 49.06538 2.68213 25183 ft 370 kts 216°
2026-04-27 13:52 49.04387 2.66068 25185 ft 370 kts 216°
2026-04-27 13:52 49.02463 2.64149 25183 ft 370 kts 216°
2026-04-27 13:52 49.00313 2.62005 25184 ft 369 kts 216°
2026-04-27 13:52 48.98161 2.59868 25182 ft 369 kts 216°
2026-04-27 13:53 48.93864 2.55606 25187 ft 368 kts 216°
2026-04-27 13:53 48.91716 2.53479 25190 ft 368 kts 216°
2026-04-27 13:53 48.89573 2.51354 25194 ft 368 kts 216°
2026-04-27 13:54 48.87461 2.49259 25194 ft 367 kts 216°
2026-04-27 13:54 48.85293 2.47114 25197 ft 367 kts 215°
2026-04-27 13:54 48.83161 2.45006 25201 ft 366 kts 215°
2026-04-27 13:54 48.81028 2.42898 25202 ft 365 kts 215°
2026-04-27 13:55 48.78925 2.40823 25204 ft 365 kts 215°
2026-04-27 13:55 48.76799 2.38727 25205 ft 364 kts 215°
2026-04-27 13:55 48.74800 2.36760 25203 ft 364 kts 215°
2026-04-27 13:55 48.72677 2.34678 25201 ft 364 kts 215°
2026-04-27 13:56 48.70554 2.32597 25200 ft 364 kts 215°
2026-04-27 13:56 48.68429 2.30510 25196 ft 364 kts 215°
2026-04-27 13:56 48.66309 2.28429 25196 ft 363 kts 215°
2026-04-27 13:56 48.64190 2.26351 25194 ft 363 kts 215°
2026-04-27 13:57 48.62068 2.24277 25193 ft 363 kts 215°
2026-04-27 13:57 48.59945 2.22205 25190 ft 363 kts 215°
2026-04-27 13:57 48.57774 2.20268 25187 ft 365 kts 206°
2026-04-27 13:57 48.55330 2.19184 25186 ft 368 kts 195°
2026-04-27 13:58 48.52825 2.18365 25179 ft 368 kts 195°
2026-04-27 13:58 48.50322 2.17569 25174 ft 368 kts 195°
2026-04-27 13:58 48.47814 2.16786 25171 ft 368 kts 194°
2026-04-27 13:58 48.45308 2.16000 25168 ft 368 kts 195°
2026-04-27 13:59 48.42802 2.15207 25163 ft 368 kts 195°
2026-04-27 13:59 48.40300 2.14410 25160 ft 368 kts 195°
2026-04-27 13:59 48.37800 2.13608 25157 ft 368 kts 195°
2026-04-27 13:59 48.35297 2.12811 25158 ft 368 kts 195°
2026-04-27 14:00 48.32793 2.12016 25159 ft 368 kts 195°
2026-04-27 14:00 48.30293 2.11226 25159 ft 367 kts 195°
2026-04-27 14:00 48.27785 2.10434 25159 ft 367 kts 195°
2026-04-27 14:00 48.25288 2.09643 25159 ft 367 kts 195°
2026-04-27 14:01 48.22790 2.08852 25162 ft 367 kts 195°
2026-04-27 14:01 48.20327 2.08073 25161 ft 367 kts 195°
2026-04-27 14:01 48.17834 2.07285 25157 ft 366 kts 195°
2026-04-27 14:01 48.15341 2.06497 25156 ft 366 kts 195°
2026-04-27 14:02 48.12850 2.05710 25170 ft 366 kts 195°
2026-04-27 14:02 48.10356 2.04930 25169 ft 366 kts 194°
2026-04-27 14:02 48.07869 2.04154 25172 ft 365 kts 195°
2026-04-27 14:02 48.05382 2.03377 25173 ft 365 kts 195°
2026-04-27 14:03 48.02894 2.02594 25177 ft 365 kts 195°
2026-04-27 14:03 48.00408 2.01814 25183 ft 365 kts 195°
2026-04-27 14:03 47.97926 2.01034 25182 ft 365 kts 195°
2026-04-27 14:03 47.95442 2.00257 25182 ft 365 kts 194°
2026-04-27 14:04 47.92959 1.99481 25179 ft 365 kts 194°
2026-04-27 14:04 47.90476 1.98707 25180 ft 365 kts 194°
2026-04-27 14:04 47.87987 1.97932 25178 ft 365 kts 194°
2026-04-27 14:04 47.85500 1.97158 25176 ft 365 kts 194°
2026-04-27 14:05 47.83017 1.96386 25173 ft 365 kts 194°
2026-04-27 14:05 47.80533 1.95614 25171 ft 365 kts 194°
2026-04-27 14:05 47.78041 1.94839 25164 ft 365 kts 194°
2026-04-27 14:05 47.75550 1.94067 25162 ft 366 kts 194°
2026-04-27 14:06 47.73060 1.93295 25161 ft 366 kts 194°
2026-04-27 14:06 47.70573 1.92525 25157 ft 366 kts 194°
2026-04-27 14:06 47.68084 1.91754 25154 ft 366 kts 194°
2026-04-27 14:06 47.65593 1.90986 25147 ft 366 kts 194°
2026-04-27 14:07 47.63098 1.90217 25145 ft 366 kts 194°
2026-04-27 14:07 47.60608 1.89448 25137 ft 366 kts 194°
2026-04-27 14:07 47.58113 1.88679 25136 ft 366 kts 194°
2026-04-27 14:07 47.55622 1.87911 25134 ft 366 kts 194°
2026-04-27 14:08 47.53121 1.87142 25132 ft 366 kts 194°
2026-04-27 14:08 47.50629 1.86377 25128 ft 366 kts 194°
2026-04-27 14:08 47.48134 1.85612 25128 ft 366 kts 194°
2026-04-27 14:08 47.45672 1.84858 25127 ft 366 kts 194°
2026-04-27 14:09 47.43177 1.84096 25127 ft 366 kts 194°
2026-04-27 14:09 47.40681 1.83336 25131 ft 366 kts 194°
2026-04-27 14:09 47.38187 1.82575 25128 ft 366 kts 194°
2026-04-27 14:09 47.35691 1.81810 25125 ft 366 kts 194°
2026-04-27 14:10 47.33198 1.81046 25128 ft 366 kts 194°
2026-04-27 14:10 47.30702 1.80283 25124 ft 366 kts 194°
2026-04-27 14:10 47.28208 1.79524 25133 ft 366 kts 194°
2026-04-27 14:10 47.25710 1.78767 25133 ft 366 kts 194°
2026-04-27 14:11 47.23214 1.78014 25127 ft 366 kts 194°
2026-04-27 14:11 47.20722 1.77260 25138 ft 366 kts 194°
2026-04-27 14:11 47.18222 1.76500 25139 ft 366 kts 194°
2026-04-27 14:11 47.15731 1.75740 25133 ft 366 kts 194°
2026-04-27 14:12 47.13236 1.74982 25139 ft 366 kts 194°
2026-04-27 14:12 47.10739 1.74225 25136 ft 366 kts 194°
2026-04-27 14:12 47.08242 1.73469 25141 ft 366 kts 194°
2026-04-27 14:12 47.05744 1.72715 25142 ft 366 kts 194°
2026-04-27 14:13 47.03249 1.71966 25131 ft 366 kts 194°
2026-04-27 14:13 47.00752 1.71219 25132 ft 366 kts 194°
2026-04-27 14:13 46.98251 1.70469 25132 ft 367 kts 194°
2026-04-27 14:13 46.95755 1.69719 25132 ft 367 kts 194°
2026-04-27 14:14 46.93257 1.68968 25136 ft 367 kts 194°
2026-04-27 14:14 46.90758 1.68217 25135 ft 367 kts 194°
2026-04-27 14:14 46.88260 1.67464 25134 ft 367 kts 194°
2026-04-27 14:14 46.85764 1.66712 25142 ft 367 kts 194°
2026-04-27 14:15 46.83259 1.65959 25140 ft 367 kts 194°
2026-04-27 14:15 46.80796 1.65219 25138 ft 367 kts 194°
2026-04-27 14:15 46.78262 1.64460 25140 ft 367 kts 194°
2026-04-27 14:15 46.75762 1.63715 25143 ft 367 kts 194°
2026-04-27 14:16 46.73297 1.62982 25142 ft 367 kts 194°
2026-04-27 14:16 46.70800 1.62238 25146 ft 367 kts 194°
2026-04-27 14:16 46.68298 1.61495 25145 ft 366 kts 194°
2026-04-27 14:16 46.65799 1.60754 25143 ft 366 kts 194°
2026-04-27 14:17 46.63300 1.60015 25143 ft 366 kts 194°
2026-04-27 14:17 46.60801 1.59275 25144 ft 367 kts 194°
2026-04-27 14:17 46.58301 1.58537 25141 ft 367 kts 194°
2026-04-27 14:17 46.55801 1.57800 25143 ft 367 kts 194°
2026-04-27 14:18 46.53300 1.57062 25142 ft 367 kts 194°
2026-04-27 14:18 46.50802 1.56319 25145 ft 366 kts 194°
2026-04-27 14:18 46.48307 1.55579 25142 ft 366 kts 194°
2026-04-27 14:18 46.45805 1.54841 25139 ft 366 kts 194°
2026-04-27 14:19 46.43311 1.54104 25137 ft 367 kts 194°
2026-04-27 14:19 46.40809 1.53365 25138 ft 367 kts 194°
2026-04-27 14:19 46.39150 1.52878 25135 ft 367 kts 194°
2026-04-27 14:19 46.35802 1.51892 25136 ft 367 kts 194°
2026-04-27 14:20 46.33301 1.51156 25136 ft 367 kts 194°
2026-04-27 14:20 46.31643 1.50668 25136 ft 367 kts 194°
2026-04-27 14:20 46.29136 1.49931 25135 ft 367 kts 194°
2026-04-27 14:20 46.26632 1.49197 25136 ft 367 kts 194°
2026-04-27 14:21 46.24127 1.48466 25134 ft 367 kts 194°
2026-04-27 14:21 46.21620 1.47736 25136 ft 368 kts 194°
2026-04-27 14:21 46.19113 1.47007 25131 ft 368 kts 194°
2026-04-27 14:21 46.16604 1.46279 25134 ft 368 kts 194°
2026-04-27 14:22 46.14098 1.45551 25131 ft 368 kts 194°
2026-04-27 14:22 46.11590 1.44822 25133 ft 368 kts 194°
2026-04-27 14:22 46.09082 1.44093 25129 ft 368 kts 194°
2026-04-27 14:22 46.06575 1.43361 25125 ft 368 kts 194°
2026-04-27 14:23 46.04065 1.42627 25123 ft 368 kts 194°
2026-04-27 14:23 46.01558 1.41894 25124 ft 367 kts 194°
2026-04-27 14:23 45.99075 1.41070 25121 ft 366 kts 200°
2026-04-27 14:23 45.96767 1.39592 25120 ft 362 kts 213°
2026-04-27 14:24 45.94786 1.37464 25117 ft 360 kts 225°
2026-04-27 14:24 45.93145 1.34701 25115 ft 359 kts 237°
2026-04-27 14:24 45.91960 1.31601 25114 ft 359 kts 243°
2026-04-27 14:24 45.90836 1.28399 25117 ft 360 kts 243°
2026-04-27 14:25 45.89699 1.25196 25116 ft 360 kts 243°
2026-04-27 14:25 45.88556 1.21999 25117 ft 360 kts 242°
2026-04-27 14:25 45.87410 1.18803 25117 ft 360 kts 242°
2026-04-27 14:25 45.86263 1.15605 25120 ft 361 kts 242°
2026-04-27 14:26 45.85115 1.12403 25124 ft 361 kts 242°
2026-04-27 14:26 45.83966 1.09201 25121 ft 361 kts 242°
2026-04-27 14:26 45.82818 1.05996 25125 ft 361 kts 243°
2026-04-27 14:26 45.81652 1.02807 25126 ft 361 kts 239°
2026-04-27 14:27 45.80229 0.99842 25126 ft 361 kts 234°
2026-04-27 14:27 45.78752 0.96932 25127 ft 362 kts 234°
2026-04-27 14:27 45.77269 0.94016 25128 ft 361 kts 234°
2026-04-27 14:27 45.75788 0.91108 25124 ft 361 kts 234°
2026-04-27 14:28 45.74307 0.88202 25125 ft 361 kts 234°
2026-04-27 14:28 45.72827 0.85300 25121 ft 361 kts 234°
2026-04-27 14:28 45.71344 0.82397 25122 ft 361 kts 234°
2026-04-27 14:28 45.69861 0.79495 25119 ft 361 kts 234°
2026-04-27 14:29 45.68379 0.76594 25119 ft 361 kts 234°
2026-04-27 14:29 45.66896 0.73690 25119 ft 361 kts 234°
2026-04-27 14:29 45.65413 0.70791 25120 ft 361 kts 234°
2026-04-27 14:29 45.63930 0.67898 25119 ft 361 kts 234°
2026-04-27 14:30 45.62442 0.65008 25117 ft 361 kts 234°
2026-04-27 14:30 45.60954 0.62118 25117 ft 361 kts 234°
2026-04-27 14:30 45.59468 0.59233 25120 ft 361 kts 234°
2026-04-27 14:30 45.58004 0.56390 25118 ft 361 kts 234°
2026-04-27 14:31 45.56538 0.53543 25115 ft 361 kts 234°
2026-04-27 14:31 45.55056 0.50673 24953 ft 356 kts 234°
2026-04-27 14:31 45.53609 0.47874 24716 ft 347 kts 234°
2026-04-27 14:31 45.52189 0.45127 24349 ft 342 kts 233°
2026-04-27 14:32 45.50780 0.42403 23924 ft 340 kts 233°
2026-04-27 14:32 45.49374 0.39688 23454 ft 339 kts 233°
2026-04-27 14:32 45.47979 0.36996 23002 ft 337 kts 233°
2026-04-27 14:32 45.46594 0.34327 22582 ft 333 kts 233°
2026-04-27 14:33 45.45222 0.31684 22158 ft 331 kts 233°
2026-04-27 14:33 45.43857 0.29057 21732 ft 329 kts 233°
2026-04-27 14:33 45.42495 0.26440 21296 ft 328 kts 233°
2026-04-27 14:33 45.41136 0.23830 20868 ft 327 kts 233°
2026-04-27 14:34 45.39784 0.21237 20446 ft 326 kts 233°
2026-04-27 14:34 45.38436 0.18656 20011 ft 324 kts 233°
2026-04-27 14:34 45.37093 0.16084 19601 ft 324 kts 233°
2026-04-27 14:34 45.35750 0.13516 19181 ft 323 kts 233°
2026-04-27 14:35 45.34419 0.10959 18817 ft 322 kts 233°
2026-04-27 14:35 45.33100 0.08393 18457 ft 320 kts 234°
2026-04-27 14:35 45.31796 0.05839 18058 ft 319 kts 234°
2026-04-27 14:35 45.30497 0.03296 17699 ft 316 kts 234°
2026-04-27 14:36 45.29208 0.00776 17339 ft 314 kts 234°
2026-04-27 14:36 45.27924 -0.01722 16996 ft 313 kts 234°
2026-04-27 14:36 45.26643 -0.04213 16643 ft 312 kts 234°
2026-04-27 14:36 45.25365 -0.06700 16301 ft 311 kts 234°
2026-04-27 14:37 45.24091 -0.09179 15947 ft 310 kts 234°
2026-04-27 14:37 45.22819 -0.11648 15597 ft 310 kts 234°
2026-04-27 14:37 45.21549 -0.14107 15260 ft 309 kts 234°
2026-04-27 14:37 45.20275 -0.16568 14907 ft 309 kts 234°
2026-04-27 14:38 45.19008 -0.19011 14561 ft 308 kts 234°
2026-04-27 14:38 45.17739 -0.21454 14214 ft 308 kts 234°
2026-04-27 14:38 45.16396 -0.23826 13860 ft 309 kts 227°
2026-04-27 14:38 45.14892 -0.25990 13475 ft 308 kts 226°
2026-04-27 14:39 45.13391 -0.28153 13123 ft 307 kts 226°
2026-04-27 14:39 45.11921 -0.30282 12776 ft 306 kts 228°
2026-04-27 14:39 45.10702 -0.32721 12424 ft 303 kts 244°
2026-04-27 14:39 45.10028 -0.35529 12078 ft 302 kts 260°
2026-04-27 14:40 45.09935 -0.38481 11729 ft 301 kts 276°
2026-04-27 14:40 45.10183 -0.41418 11382 ft 300 kts 277°
2026-04-27 14:40 45.10417 -0.44166 11066 ft 299 kts 276°
2026-04-27 14:40 45.10663 -0.47087 10719 ft 298 kts 276°
2026-04-27 14:41 45.10906 -0.49995 10376 ft 297 kts 276°
2026-04-27 14:41 45.11147 -0.52893 10044 ft 296 kts 276°
2026-04-27 14:41 45.11330 -0.55765 9773 ft 291 kts 269°
2026-04-27 14:41 45.10995 -0.58575 9412 ft 289 kts 251°
2026-04-27 14:42 45.10077 -0.61084 9038 ft 287 kts 233°
2026-04-27 14:42 45.08712 -0.63125 8688 ft 285 kts 223°
2026-04-27 14:42 45.07506 -0.64728 8405 ft 282 kts 223°
2026-04-27 14:42 45.06085 -0.66622 8086 ft 279 kts 224°
2026-04-27 14:43 45.04678 -0.68500 7768 ft 277 kts 223°
2026-04-27 14:43 45.03280 -0.70366 7453 ft 276 kts 223°
2026-04-27 14:43 45.01892 -0.72217 7185 ft 271 kts 223°
2026-04-27 14:43 45.00546 -0.74013 7062 ft 261 kts 223°
2026-04-27 14:44 44.99257 -0.75735 6937 ft 250 kts 223°
2026-04-27 14:44 44.97947 -0.77279 6763 ft 243 kts 212°
2026-04-27 14:44 44.96504 -0.78464 6571 ft 239 kts 210°
2026-04-27 14:44 44.95067 -0.79635 6324 ft 238 kts 210°
2026-04-27 14:45 44.93650 -0.80793 6061 ft 239 kts 210°
2026-04-27 14:45 44.92210 -0.81972 5813 ft 240 kts 210°
2026-04-27 14:45 44.90768 -0.83153 5552 ft 240 kts 210°
2026-04-27 14:45 44.89317 -0.84342 5193 ft 242 kts 210°
2026-04-27 14:46 44.87798 -0.85354 4906 ft 243 kts 196°
2026-04-27 14:46 44.86117 -0.85935 4321 ft 256 kts 192°
2026-04-27 14:46 44.84385 -0.86498 4068 ft 254 kts 192°
2026-04-27 14:46 44.82709 -0.87035 3950 ft 238 kts 192°
2026-04-27 14:47 44.81105 -0.87542 3597 ft 238 kts 190°
2026-04-27 14:47 44.79469 -0.87535 3181 ft 235 kts 164°
2026-04-27 14:47 44.78046 -0.86582 2818 ft 220 kts 138°
2026-04-27 14:47 44.77097 -0.85016 2500 ft 202 kts 115°
2026-04-27 14:48 44.76672 -0.83241 2222 ft 184 kts 95°
2026-04-27 14:48 44.77086 -0.80051 1709 ft 154 kts 59°
2026-04-27 14:48 44.77694 -0.78891 1426 ft 142 kts 44°
2026-04-27 14:49 44.78395 -0.77917 1139 ft 141 kts 44°
2026-04-27 14:49 44.79083 -0.76958 908 ft 138 kts 41°
2026-04-27 14:49 44.79756 -0.75992 676 ft 139 kts 43°
2026-04-27 14:49 44.80434 -0.75020 484 ft 140 kts 43°
2026-04-27 14:50 44.81101 -0.74058 372 ft 138 kts 43°
2026-04-27 14:50 44.81770 -0.73098 223 ft 137 kts 43°
2026-04-27 14:50 44.82396 -0.72208 168 ft 101 kts 47°
2026-04-27 14:50 44.82696 -0.71777 173 ft 41 kts 47°
2026-04-27 14:51 44.82891 -0.71510 169 ft 35 kts 44°
2026-04-27 14:51 44.82996 -0.71257 168 ft 29 kts 98°
2026-04-27 14:51 44.82968 -0.71067 169 ft 18 kts 105°
2026-04-27 14:51 44.82945 -0.70958 170 ft 17 kts 107°
2026-04-27 14:52 44.82899 -0.70742 170 ft 21 kts 107°
2026-04-27 14:52 44.82852 -0.70515 170 ft 28 kts 105°
2026-04-27 14:52 44.82795 -0.70247 170 ft 19 kts 106°
2026-04-27 14:52 44.82826 -0.70092 169 ft 17 kts 100°
2026-04-27 14:53 44.82830 -0.69990 169 ft 8 kts 32°
2026-04-27 14:53 44.82857 -0.69977 169 ft 0 kts 17°
2026-04-27 14:53 44.82861 -0.69975 169 ft 0 kts 17°
2026-04-27 15:25 44.82861 -0.69976 169 ft 2 kts 17°
2026-04-27 15:25 44.82836 -0.69985 169 ft 4 kts 15°
2026-04-27 15:26 44.82817 -0.69992 169 ft 4 kts 344°
2026-04-27 15:26 44.82801 -0.69970 169 ft 3 kts 286°
2026-04-27 15:26 44.82796 -0.69944 169 ft 0 kts 286°
2026-04-27 15:28 44.82797 -0.69953 169 ft 4 kts 286°
2026-04-27 15:29 44.82812 -0.70021 169 ft 11 kts 286°
2026-04-27 15:29 44.82831 -0.70142 169 ft 13 kts 259°
2026-04-27 15:29 44.82810 -0.70263 170 ft 15 kts 289°
2026-04-27 15:29 44.82834 -0.70432 170 ft 21 kts 286°
2026-04-27 15:30 44.82880 -0.70651 170 ft 26 kts 287°
2026-04-27 15:30 44.82935 -0.70907 170 ft 28 kts 284°
2026-04-27 15:30 44.82844 -0.71120 170 ft 27 kts 226°
2026-04-27 15:30 44.82699 -0.71323 170 ft 33 kts 225°
2026-04-27 15:31 44.82534 -0.71560 170 ft 34 kts 225°
2026-04-27 15:31 44.82367 -0.71801 170 ft 35 kts 224°
2026-04-27 15:31 44.82198 -0.72036 170 ft 35 kts 226°
2026-04-27 15:31 44.82082 -0.72324 170 ft 35 kts 268°
2026-04-27 15:32 44.82200 -0.72483 170 ft 19 kts 17°
2026-04-27 15:32 44.82222 -0.72455 170 ft 2 kts 43°
2026-04-27 15:32 44.82229 -0.72444 170 ft 0 kts 44°
2026-04-27 15:32 44.82250 -0.72415 170 ft 26 kts 46°
2026-04-27 15:33 44.82561 -0.71970 171 ft 97 kts 45°
2026-04-27 15:33 44.83173 -0.71096 170 ft 150 kts 45°
2026-04-27 15:33 44.83984 -0.69921 410 ft 173 kts 43°
2026-04-27 15:33 44.84820 -0.68714 1109 ft 173 kts 43°
2026-04-27 15:34 44.85672 -0.67502 1846 ft 175 kts 43°
2026-04-27 15:34 44.86558 -0.66245 2434 ft 190 kts 44°
2026-04-27 15:34 44.87540 -0.64838 2804 ft 212 kts 44°
2026-04-27 15:34 44.88625 -0.63282 3279 ft 232 kts 44°
2026-04-27 15:35 44.89768 -0.61642 4078 ft 236 kts 44°
2026-04-27 15:35 44.90863 -0.59888 4860 ft 244 kts 56°
2026-04-27 15:35 44.91487 -0.57564 5366 ft 265 kts 82°
2026-04-27 15:35 44.91321 -0.54943 6114 ft 275 kts 109°
2026-04-27 15:36 44.90352 -0.52613 6893 ft 278 kts 136°
2026-04-27 15:36 44.88879 -0.50833 7700 ft 281 kts 142°
2026-04-27 15:36 44.87348 -0.49081 8546 ft 286 kts 142°
2026-04-27 15:36 44.85811 -0.47328 9368 ft 290 kts 142°
2026-04-27 15:37 44.84230 -0.45517 10166 ft 295 kts 142°
2026-04-27 15:37 44.82591 -0.43635 10557 ft 315 kts 142°
2026-04-27 15:37 44.80834 -0.41618 10914 ft 334 kts 142°
2026-04-27 15:37 44.79012 -0.39525 11576 ft 341 kts 142°
2026-04-27 15:38 44.77163 -0.37403 12330 ft 345 kts 142°
2026-04-27 15:38 44.75299 -0.35259 13089 ft 348 kts 142°
2026-04-27 15:38 44.73483 -0.32975 13817 ft 353 kts 134°
2026-04-27 15:38 44.71996 -0.30203 14443 ft 358 kts 122°
2026-04-27 15:39 44.70928 -0.27023 15083 ft 363 kts 112°
2026-04-27 15:39 44.70019 -0.23706 15712 ft 366 kts 112°
2026-04-27 15:39 44.69089 -0.20350 16348 ft 370 kts 113°
2026-04-27 15:39 44.68146 -0.16975 16975 ft 373 kts 113°
2026-04-27 15:40 44.67151 -0.13587 17578 ft 377 kts 116°
2026-04-27 15:40 44.66039 -0.10236 18197 ft 380 kts 118°
2026-04-27 15:40 44.64851 -0.06906 18744 ft 383 kts 119°
2026-04-27 15:40 44.63621 -0.03564 19271 ft 387 kts 120°
2026-04-27 15:41 44.62379 -0.00199 19810 ft 389 kts 120°
2026-04-27 15:41 44.61137 0.03198 20337 ft 393 kts 119°
2026-04-27 15:41 44.59903 0.06628 20858 ft 396 kts 119°
2026-04-27 15:41 44.58687 0.10050 21360 ft 399 kts 119°
2026-04-27 15:42 44.57436 0.13593 21885 ft 402 kts 119°
2026-04-27 15:42 44.56206 0.17071 22381 ft 404 kts 119°
2026-04-27 15:42 44.54948 0.20615 22888 ft 407 kts 119°
2026-04-27 15:42 44.53678 0.24176 23377 ft 410 kts 119°
2026-04-27 15:43 44.52392 0.27766 23810 ft 413 kts 119°
2026-04-27 15:43 44.51099 0.31372 24205 ft 416 kts 119°
2026-04-27 15:43 44.49795 0.35006 24600 ft 419 kts 119°
2026-04-27 15:43 44.48484 0.38656 24988 ft 421 kts 119°
2026-04-27 15:44 44.47164 0.42329 25370 ft 424 kts 119°
2026-04-27 15:44 44.45834 0.46022 25751 ft 426 kts 119°
2026-04-27 15:44 44.44496 0.49740 26124 ft 429 kts 118°
2026-04-27 15:44 44.43362 0.53618 26487 ft 434 kts 110°
2026-04-27 15:45 44.42438 0.57655 26856 ft 436 kts 110°
2026-04-27 15:45 44.41509 0.61699 27222 ft 439 kts 110°
2026-04-27 15:45 44.40569 0.65775 27572 ft 441 kts 110°
2026-04-27 15:45 44.39622 0.69866 27931 ft 444 kts 110°
2026-04-27 15:46 44.38667 0.73982 28287 ft 446 kts 110°
2026-04-27 15:46 44.37708 0.78119 28637 ft 448 kts 110°
2026-04-27 15:46 44.36741 0.82268 28985 ft 451 kts 110°
2026-04-27 15:46 44.35765 0.86439 29329 ft 453 kts 110°
2026-04-27 15:47 44.34781 0.90632 29666 ft 455 kts 110°
2026-04-27 15:47 44.33789 0.94842 30001 ft 457 kts 110°
2026-04-27 15:47 44.32793 0.99076 30286 ft 460 kts 110°
2026-04-27 15:47 44.31795 1.03322 30553 ft 462 kts 110°
2026-04-27 15:48 44.30790 1.07588 30825 ft 463 kts 110°
2026-04-27 15:48 44.29781 1.11871 31091 ft 465 kts 110°
2026-04-27 15:48 44.28768 1.16170 31351 ft 467 kts 110°
2026-04-27 15:49 44.26728 1.24762 32058 ft 465 kts 110°
2026-04-27 15:49 44.25709 1.29040 32429 ft 464 kts 110°
2026-04-27 15:49 44.24688 1.33313 32790 ft 463 kts 110°
2026-04-27 15:49 44.23667 1.37574 33031 ft 463 kts 110°
2026-04-27 15:50 44.22657 1.41791 33080 ft 453 kts 110°
2026-04-27 15:50 44.20699 1.49974 33071 ft 445 kts 110°
2026-04-27 15:51 44.18736 1.58132 33081 ft 444 kts 110°
2026-04-27 15:51 44.16762 1.66274 33067 ft 443 kts 110°
2026-04-27 15:52 44.14782 1.74404 33076 ft 443 kts 110°
2026-04-27 15:52 44.12800 1.82527 33075 ft 443 kts 110°
2026-04-27 15:53 44.10822 1.90640 33085 ft 443 kts 110°
2026-04-27 15:53 44.08832 1.98747 33073 ft 443 kts 110°
2026-04-27 15:54 44.06836 2.06851 33084 ft 443 kts 110°
2026-04-27 15:54 44.04841 2.14936 33087 ft 442 kts 110°
2026-04-27 15:55 44.02837 2.23026 33094 ft 442 kts 110°
2026-04-27 15:55 44.00827 2.31098 33078 ft 442 kts 110°
2026-04-27 15:56 43.98812 2.39166 33092 ft 442 kts 110°
2026-04-27 15:56 43.96790 2.47223 33098 ft 442 kts 110°
2026-04-27 15:57 43.94775 2.55218 33085 ft 442 kts 110°
2026-04-27 15:57 43.92746 2.63266 33089 ft 442 kts 110°
2026-04-27 15:58 43.90711 2.71302 33087 ft 442 kts 110°
2026-04-27 15:58 43.88687 2.79282 32720 ft 432 kts 110°
2026-04-27 15:58 43.87692 2.83187 32454 ft 428 kts 110°
2026-04-27 15:59 43.86701 2.87061 32194 ft 425 kts 110°
2026-04-27 15:59 43.85715 2.90911 31938 ft 424 kts 110°
2026-04-27 15:59 43.84732 2.94754 31679 ft 421 kts 110°
2026-04-27 15:59 43.83757 2.98559 31226 ft 418 kts 110°
2026-04-27 16:00 43.82786 3.02344 30737 ft 416 kts 110°
2026-04-27 16:00 43.82146 3.04832 30432 ft 415 kts 110°
2026-04-27 16:00 43.80855 3.09846 29746 ft 412 kts 110°
2026-04-27 16:00 43.79895 3.13560 29295 ft 407 kts 110°
2026-04-27 16:01 43.78944 3.17233 28843 ft 403 kts 110°
2026-04-27 16:01 43.78005 3.20865 28388 ft 399 kts 110°
2026-04-27 16:01 43.77074 3.24463 27970 ft 395 kts 110°
2026-04-27 16:01 43.76161 3.27980 27533 ft 392 kts 110°
2026-04-27 16:02 43.75230 3.31554 27100 ft 388 kts 110°
2026-04-27 16:02 43.74330 3.35002 26656 ft 386 kts 111°
2026-04-27 16:02 43.73423 3.38479 26210 ft 383 kts 111°
2026-04-27 16:02 43.72522 3.41933 25767 ft 382 kts 111°
2026-04-27 16:03 43.71620 3.45382 25307 ft 381 kts 111°
2026-04-27 16:03 43.70720 3.48815 24844 ft 379 kts 111°
2026-04-27 16:03 43.69819 3.52245 24357 ft 379 kts 111°
2026-04-27 16:03 43.68915 3.55673 23882 ft 379 kts 111°
2026-04-27 16:04 43.68012 3.59089 23359 ft 379 kts 111°
2026-04-27 16:04 43.67113 3.62504 22875 ft 377 kts 111°
2026-04-27 16:04 43.66218 3.65897 22407 ft 375 kts 111°
2026-04-27 16:04 43.65325 3.69278 21935 ft 374 kts 111°
2026-04-27 16:05 43.64437 3.72638 21488 ft 372 kts 111°
2026-04-27 16:05 43.63550 3.75995 21012 ft 371 kts 111°
2026-04-27 16:05 43.62669 3.79327 20567 ft 369 kts 111°
2026-04-27 16:05 43.61788 3.82646 20122 ft 368 kts 111°
2026-04-27 16:06 43.61206 3.84834 19825 ft 368 kts 111°
2026-04-27 16:06 43.60323 3.88145 19376 ft 367 kts 111°
2026-04-27 16:06 43.59443 3.91442 18930 ft 366 kts 111°
2026-04-27 16:06 43.58563 3.94735 18484 ft 366 kts 111°
2026-04-27 16:07 43.57634 3.97981 18048 ft 363 kts 117°
2026-04-27 16:07 43.56459 4.01046 17658 ft 359 kts 119°
2026-04-27 16:07 43.55287 4.04080 17195 ft 357 kts 119°
2026-04-27 16:07 43.54128 4.07089 16756 ft 355 kts 119°
2026-04-27 16:08 43.52976 4.10075 16385 ft 351 kts 119°
2026-04-27 16:08 43.51828 4.13048 15980 ft 349 kts 118°
2026-04-27 16:08 43.50692 4.15993 15563 ft 348 kts 118°
2026-04-27 16:08 43.49562 4.18919 15175 ft 346 kts 118°
2026-04-27 16:09 43.48438 4.21829 14826 ft 343 kts 118°
2026-04-27 16:09 43.47090 4.28001 14268 ft 334 kts 98°
2026-04-27 16:09 43.46767 4.31139 14029 ft 328 kts 98°
2026-04-27 16:10 43.46149 4.37218 13519 ft 318 kts 98°
2026-04-27 16:10 43.45540 4.43164 12993 ft 310 kts 98°
2026-04-27 16:11 43.45242 4.46100 12700 ft 309 kts 96°
2026-04-27 16:11 43.46216 4.51807 11065 ft 315 kts 59°
2026-04-27 16:12 43.48341 4.56932 10095 ft 296 kts 59°
2026-04-27 16:12 43.49349 4.59371 9635 ft 288 kts 59°
2026-04-27 16:12 43.51316 4.64140 8842 ft 285 kts 59°
2026-04-27 16:13 43.52294 4.66511 8512 ft 284 kts 59°
2026-04-27 16:13 43.54233 4.71223 7859 ft 281 kts 59°
2026-04-27 16:13 43.55192 4.73561 7539 ft 280 kts 59°
2026-04-27 16:14 43.57101 4.78215 6911 ft 277 kts 59°
2026-04-27 16:14 43.58987 4.82820 6278 ft 274 kts 59°
2026-04-27 16:15 43.60519 4.86578 5735 ft 270 kts 59°
2026-04-27 16:15 43.62311 4.91066 5089 ft 264 kts 66°
2026-04-27 16:16 43.61733 4.95809 4437 ft 266 kts 130°
2026-04-27 16:16 43.59167 4.99383 3968 ft 254 kts 133°
2026-04-27 16:17 43.56811 5.02707 3615 ft 243 kts 131°
2026-04-27 16:17 43.54387 5.06194 2734 ft 251 kts 133°
2026-04-27 16:18 43.52052 5.09534 2085 ft 234 kts 134°
2026-04-27 16:18 43.49968 5.12515 1508 ft 199 kts 135°
2026-04-27 16:19 43.49052 5.13824 1263 ft 181 kts 135°
2026-04-27 16:19 43.48236 5.14991 1045 ft 157 kts 136°
2026-04-27 16:20 43.46159 5.17955 403 ft 136 kts 137°
2026-04-27 16:20 43.45503 5.18891 225 ft 136 kts 137°
2026-04-27 16:20 43.44244 5.20679 35 ft 95 kts 134°
2026-04-27 16:21 43.43964 5.21080 36 ft 41 kts 131°
2026-04-27 16:21 43.43436 5.21833 35 ft 35 kts 131°
2026-04-27 16:22 43.43337 5.22108 37 ft 33 kts 94°
2026-04-27 16:22 43.43503 5.22225 36 ft 17 kts 330°
2026-04-27 16:22 43.43597 5.22148 37 ft 15 kts 328°
2026-04-27 16:23 43.43685 5.22119 35 ft 12 kts 22°
2026-04-27 16:23 43.43799 5.22226 37 ft 9 kts 347°
2026-04-27 16:23 43.43847 5.22235 35 ft 7 kts 54°
2026-04-27 16:24 43.43859 5.22290 37 ft 6 kts 74°
2026-04-27 16:24 43.43863 5.22305 37 ft 0 kts 74°